FW1589 Weather Reports


Display with metric or nautical units.
time (UTC)temp
F
wind
direction
speed
MPH
gust
MPH
rain 1hr
in
rain 24hr
in
rain mn
in
humidity
%
barometer
mb
20260507210800 65 232 3.0 10.0 0.00 0.00 0.00 71 1001.0
20260507205242 64 217 3.0 8.0 0.00 0.00 0.00 73 1001.1
20260507204736 64 280 3.0 7.0 0.00 0.00 0.00 73 1001.2
20260507203723 64 216 4.0 10.0 0.00 0.00 0.00 72 1001.2
20260507203218 64 243 3.0 10.0 0.00 0.00 0.00 73 1001.2
20260507202711 64 209 3.0 8.0 0.00 0.00 0.00 73 1001.2
20260507202205 64 175 4.0 8.0 0.00 0.00 0.00 72 1001.2
20260507201704 64 210 3.0 8.0 0.00 0.00 0.00 72 1001.4
20260507201154 64 219 3.0 8.0 0.00 0.00 0.00 73 1001.3
20260507200648 64 300 3.0 8.0 0.00 0.00 0.00 73 1001.4
20260507200141 64 331 3.0 8.0 0.00 0.00 0.00 73 1001.4
20260507195636 64 198 3.0 8.0 0.00 0.00 0.00 73 1001.6
20260507195130 64 260 3.0 7.0 0.00 0.00 0.00 72 1001.6
20260507194624 64 167 3.0 7.0 0.00 0.00 0.00 72 1001.6
20260507194118 63 234 3.0 7.0 0.00 0.00 0.00 73 1001.6
20260507193612 63 195 3.0 7.0 0.00 0.00 0.00 73 1001.6
20260507193106 63 266 3.0 7.0 0.00 0.00 0.00 72 1001.7
20260507192559 63 205 3.0 7.0 0.00 0.00 0.00 73 1001.7
20260507192054 63 189 3.0 7.0 0.00 0.00 0.00 72 1001.7
20260507191548 63 221 3.0 6.0 0.00 0.00 0.00 74 1001.7
20260507191042 62 231 3.0 6.0 0.00 0.00 0.00 74 1001.8
20260507185524 62 184 2.0 6.0 0.00 0.00 0.00 74 1001.9
20260507185017 62 240 2.0 6.0 0.00 0.00 0.00 75 1001.9
20260507184512 62 279 2.0 5.0 0.00 0.00 0.00 76 1001.9
20260507184006 61 242 2.0 7.0 0.00 0.00 0.00 76 1001.9
20260507183500 61 250 3.0 7.0 0.00 0.00 0.00 76 1002.0
20260507182954 60 254 3.0 7.0 0.00 0.00 0.00 76 1002.0
20260507182448 60 279 3.0 6.0 0.00 0.00 0.00 76 1002.0
20260507181941 60 217 3.0 6.0 0.00 0.00 0.00 76 1002.0
20260507181436 60 237 3.0 9.0 0.00 0.00 0.00 76 1002.0
20260507180929 60 277 3.0 9.0 0.00 0.00 0.00 77 1002.1
20260507175917 59 280 3.0 8.0 0.00 0.00 0.00 78 1002.1
20260507175412 59 268 3.0 9.0 0.00 0.00 0.00 78 1002.1
20260507174906 59 277 2.0 9.0 0.00 0.00 0.00 78 1002.0
20260507174400 59 227 3.0 7.0 0.00 0.00 0.00 78 1002.0
20260507173854 59 182 3.0 8.0 0.00 0.00 0.00 79 1002.0
20260507173348 59 284 3.0 8.0 0.00 0.00 0.00 79 1002.1
20260507172845 58 211 3.0 7.0 0.00 0.00 0.00 79 1002.0
20260507172346 58 208 3.0 7.0 0.00 0.00 0.00 80 1002.1
20260507171843 58 194 3.0 6.0 0.00 0.00 0.00 80 1002.0
20260507170841 57 181 2.0 5.0 0.00 0.00 0.00 82 1002.0
20260507170342 57 236 1.0 6.0 0.00 0.00 0.00 83 1002.0
20260507165841 56 225 2.0 6.0 0.00 0.00 0.00 83 1001.9
20260507165341 56 257 2.0 8.0 0.00 0.00 0.00 83 1002.0
20260507164841 56 181 2.0 8.0 0.00 0.00 0.00 85 1002.0
20260507164340 56 246 2.0 6.0 0.00 0.00 0.00 85 1002.0
20260507163841 55 243 2.0 5.0 0.00 0.00 0.00 86 1001.9
20260507162841 54 173 2.0 8.0 0.00 0.00 0.00 87 1001.9
20260507162336 54 198 3.0 8.0 0.00 0.00 0.00 87 1001.9
20260507161838 54 152 3.0 7.0 0.00 0.00 0.00 87 1001.9
20260507161338 54 175 4.0 7.0 0.00 0.00 0.00 87 1002.0
20260507160838 54 161 3.0 8.0 0.00 0.00 0.00 88 1002.0
20260507155838 53 244 1.0 5.0 0.00 0.00 0.00 89 1002.0
20260507155336 53 162 2.0 6.0 0.00 0.00 0.00 89 1001.9
20260507154338 53 178 3.0 8.0 0.00 0.00 0.00 89 1002.1
20260507153333 53 176 3.0 7.0 0.00 0.00 0.00 89 1002.1
20260507152832 53 155 3.0 7.0 0.00 0.00 0.00 89 1002.0
20260507152333 53 176 2.0 5.0 0.00 0.00 0.00 89 1002.0
20260507151833 53 207 2.0 6.0 0.00 0.00 0.00 89 1002.0
20260507151334 53 180 2.0 7.0 0.00 0.00 0.00 90 1001.9
20260507150833 52 198 2.0 7.0 0.00 0.00 0.00 90 1002.0
20260507150333 52 167 2.0 6.0 0.00 0.00 0.00 90 1001.9
20260507145833 52 209 3.0 6.0 0.00 0.00 0.00 90 1001.9
20260507145334 52 182 3.0 7.0 0.00 0.00 0.00 90 1001.9
20260507144832 52 194 3.0 7.0 0.00 0.00 0.00 90 1001.9
20260507144333 52 186 2.0 6.0 0.00 0.00 0.00 90 1002.0
20260507143832 52 182 3.0 8.0 0.00 0.00 0.00 90 1001.9
20260507143333 52 227 3.0 8.0 0.00 0.00 0.00 90 1001.8
20260507142833 52 251 2.0 7.0 0.00 0.00 0.00 90 1001.8
20260507142332 52 244 3.0 8.0 0.00 0.00 0.00 90 1001.8
20260507141832 52 182 2.0 8.0 0.00 0.00 0.00 90 1001.8
20260507141333 52 213 1.0 4.0 0.00 0.00 0.00 90 1001.8
20260507140320 52 244 3.0 9.0 0.00 0.00 0.00 90 1001.7
20260507135815 52 251 3.0 9.0 0.00 0.00 0.00 90 1001.8
20260507135309 52 182 4.0 8.0 0.00 0.00 0.00 90 1001.6
20260507134803 52 205 3.0 8.0 0.00 0.00 0.00 90 1001.6
20260507134257 52 178 3.0 7.0 0.00 0.00 0.00 90 1001.5
20260507133752 52 202 2.0 6.0 0.00 0.00 0.00 90 1001.5
20260507133252 52 171 2.0 7.0 0.00 0.00 0.00 90 1001.4
20260507132754 52 183 3.0 7.0 0.00 0.00 0.00 90 1001.4
20260507132250 52 209 2.0 8.0 0.00 0.00 0.00 90 1001.4
20260507131746 52 182 2.0 8.0 0.00 0.00 0.00 90 1001.4
20260507131246 52 226 3.0 7.0 0.00 0.00 0.00 90 1001.3
20260507130745 52 199 2.0 7.0 0.00 0.00 0.00 90 1001.3
20260507130243 52 195 2.0 5.0 0.00 0.00 0.00 90 1001.3
20260507125742 52 236 3.0 7.0 0.00 0.00 0.00 90 1001.3
20260507125240 52 197 3.0 7.0 0.00 0.00 0.00 90 1001.3
20260507124738 52 202 3.0 7.0 0.00 0.00 0.00 90 1001.2
20260507123736 52 184 4.0 10.0 0.00 0.00 0.00 90 1001.1
20260507123235 52 197 4.0 10.0 0.00 0.00 0.00 90 1001.1
20260507122735 52 192 4.0 7.0 0.00 0.00 0.00 90 1001.1
20260507122233 52 186 3.0 6.0 0.00 0.00 0.00 90 1001.2
20260507121232 52 182 3.0 7.0 0.00 0.00 0.00 90 1001.1
20260507120733 52 178 3.0 9.0 0.00 0.00 0.00 90 1001.1
20260507120227 52 178 2.0 9.0 0.00 0.00 0.00 90 1001.2
20260507115721 52 240 2.0 4.0 0.00 0.00 0.00 90 1001.2
20260507115215 52 217 2.0 5.0 0.00 0.00 0.00 90 1001.2
20260507114202 52 252 3.0 10.0 0.00 0.00 0.00 90 1001.3
20260507113657 52 175 2.0 9.0 0.00 0.00 0.00 90 1001.3
20260507113150 52 168 2.0 7.0 0.00 0.00 0.00 90 1001.4
20260507112645 52 171 2.0 7.0 0.00 0.00 0.00 90 1001.3
20260507112139 52 250 2.0 6.0 0.00 0.00 0.00 90 1001.4
20260507111632 52 250 3.0 8.0 0.00 0.00 0.00 90 1001.4
20260507111127 52 249 3.0 8.0 0.00 0.00 0.00 90 1001.4
20260507110620 52 191 4.0 10.0 0.00 0.00 0.00 90 1001.4
20260507110115 52 194 5.0 10.0 0.00 0.00 0.00 90 1001.3
20260507105109 52 205 3.0 8.0 0.00 0.00 0.00 90 1001.5
20260507104553 52 177 3.0 8.0 0.00 0.00 0.00 90 1001.4
20260507103540 52 210 4.0 10.0 0.00 0.00 0.00 90 1001.4
20260507102529 52 149 5.0 10.0 0.00 0.00 0.00 90 1001.6
20260507102023 52 168 5.0 10.0 0.00 0.00 0.00 90 1001.6
20260507101517 52 162 3.0 10.0 0.00 0.00 0.00 90 1001.6
20260507101011 52 189 4.0 8.0 0.00 0.00 0.00 90 1001.5
20260507100505 52 226 5.0 12.0 0.00 0.00 0.00 90 1001.5
20260507095959 52 186 5.0 12.0 0.00 0.00 0.00 90 1001.5
20260507095453 52 187 4.0 9.0 0.00 0.00 0.00 90 1001.6
20260507094947 52 169 4.0 9.0 0.00 0.00 0.00 90 1001.6
20260507094441 52 199 4.0 10.0 0.00 0.00 0.00 90 1001.7
20260507093429 53 192 4.0 9.0 0.00 0.00 0.00 89 1001.6
20260507092923 53 187 4.0 9.0 0.00 0.00 0.00 89 1001.6
20260507092416 53 178 4.0 9.0 0.00 0.00 0.00 89 1001.6
20260507090859 53 174 1.0 7.0 0.00 0.00 0.00 89 1001.7
20260507090352 53 183 1.0 4.0 0.00 0.00 0.00 89 1001.7
20260507085847 53 238 2.0 7.0 0.00 0.00 0.00 89 1001.7
20260507085341 53 222 2.0 7.0 0.00 0.00 0.00 89 1001.8
20260507084835 53 192 2.0 7.0 0.00 0.00 0.00 89 1001.9
20260507084328 53 244 2.0 6.0 0.00 0.00 0.00 89 1001.8
20260507083823 53 250 2.0 5.0 0.00 0.00 0.00 89 1001.9
20260507083316 53 215 2.0 5.0 0.00 0.00 0.00 89 1001.9
20260507082811 53 180 2.0 9.0 0.00 0.00 0.00 89 1001.9
20260507082306 53 201 2.0 9.0 0.00 0.00 0.00 89 1002.0
20260507080747 53 238 2.0 5.0 0.00 0.00 0.00 89 1002.1
20260507080241 53 245 2.0 7.0 0.00 0.00 0.00 89 1002.0
20260507075735 54 246 2.0 7.0 0.00 0.00 0.00 89 1002.0
20260507075229 54 200 2.0 7.0 0.00 0.00 0.00 89 1002.0
20260507074729 54 218 3.0 8.0 0.00 0.00 0.00 89 1001.9
20260507074229 54 181 3.0 8.0 0.00 0.00 0.00 89 1001.9
20260507073728 54 174 2.0 8.0 0.00 0.00 0.00 89 1002.0
20260507073226 54 236 2.0 7.0 0.00 0.00 0.00 89 1002.0
20260507072725 54 196 3.0 7.0 0.00 0.00 0.00 89 1002.0
20260507072226 54 186 3.0 7.0 0.00 0.00 0.00 89 1001.9
20260507071726 54 225 2.0 7.0 0.00 0.00 0.00 89 1001.9
20260507071227 54 181 2.0 7.0 0.00 0.00 0.00 89 1001.9
20260507070725 54 189 3.0 7.0 0.00 0.00 0.00 89 1001.8
20260507065725 54 240 4.0 9.0 0.00 0.00 0.00 89 1001.9
20260507064724 54 173 4.0 9.0 0.00 0.00 0.00 89 1001.9
20260507064224 54 177 4.0 9.0 0.00 0.00 0.00 89 1001.8
20260507063725 54 187 4.0 9.0 0.00 0.00 0.00 89 1001.9
20260507063224 54 178 4.0 9.0 0.00 0.00 0.00 89 1001.9
20260507062212 54 165 4.0 9.0 0.00 0.00 0.00 88 1001.9
20260507061706 54 201 3.0 9.0 0.00 0.00 0.00 88 1001.9
20260507061201 54 159 3.0 7.0 0.00 0.00 0.00 88 1001.9
20260507060655 54 180 3.0 7.0 0.00 0.00 0.00 88 1001.8
20260507060148 54 174 4.0 7.0 0.00 0.00 0.00 88 1001.8
20260507055137 54 206 5.0 10.0 0.00 0.00 0.00 88 1001.7
20260507054637 54 178 4.0 10.0 0.00 0.00 0.00 88 1001.8
20260507054139 55 186 4.0 11.0 0.00 0.00 0.00 87 1001.8
20260507053637 55 159 4.0 11.0 0.00 0.00 0.00 87 1001.7
20260507052635 55 215 5.0 10.0 0.00 0.00 0.00 87 1001.8
20260507052135 55 196 4.0 10.0 0.00 0.00 0.00 87 1001.8
20260507051637 56 161 3.0 11.0 0.00 0.00 0.00 87 1001.8
20260507051135 56 150 3.0 11.0 0.00 0.00 0.00 86 1001.7
20260507050635 56 198 3.0 8.0 0.00 0.00 0.00 86 1001.7
20260507045637 56 146 3.0 7.0 0.00 0.00 0.00 86 1001.8
20260507045133 56 192 3.0 8.0 0.00 0.00 0.00 86 1001.7
20260507044631 57 188 3.0 8.0 0.00 0.00 0.00 85 1001.7
20260507044132 57 191 3.0 7.0 0.00 0.00 0.00 85 1001.7
20260507043633 57 161 3.0 7.0 0.00 0.00 0.00 85 1001.7
20260507042632 58 157 2.0 8.0 0.00 0.00 0.00 84 1001.6
20260507042132 58 170 1.0 6.0 0.00 0.00 0.00 84 1001.7
20260507041631 58 166 0.0 4.0 0.00 0.00 0.00 83 1001.6
20260507041132 58 155 0.0 2.0 0.00 0.00 0.00 83 1001.6
20260507040632 58 155 1.0 6.0 0.00 0.00 0.00 83 1001.6
20260507035132 58 138 1.0 5.0 0.00 0.00 0.00 82 1001.4
20260507034631 59 161 0.0 0.0 0.00 0.00 0.00 83 1001.4
20260507034131 59 161 0.0 2.0 0.00 0.00 0.00 82 1001.4
20260507033132 59 161 0.0 0.0 0.00 0.00 0.00 82 1001.2
20260507032632 59 161 0.0 0.0 0.00 0.00 0.00 82 1001.1
20260507032131 59 161 0.0 0.0 0.00 0.00 0.00 81 1001.0
20260507031631 59 161 0.0 0.0 0.00 0.00 0.00 81 1000.9
20260507031133 59 161 0.0 0.0 0.00 0.00 0.00 81 1001.0
20260507030631 60 161 0.0 1.0 0.00 0.00 0.00 81 1001.0
20260507030128 60 161 0.0 1.0 0.00 0.00 0.00 81 1000.9
20260507025629 60 161 0.0 2.0 0.00 0.00 0.00 81 1001.0
20260507025126 60 161 1.0 5.0 0.00 0.00 0.00 81 1001.0
20260507024625 60 160 2.0 7.0 0.00 0.00 0.00 81 1001.0
20260507024127 60 167 3.0 7.0 0.00 0.00 0.00 80 1001.0
20260507023125 61 154 2.0 7.0 0.00 0.00 0.00 79 1000.9
20260507022624 61 170 3.0 9.0 0.00 0.00 0.00 79 1000.8
20260507022124 62 175 4.0 9.0 0.00 0.00 0.00 78 1000.8
20260507021617 62 132 4.0 9.0 0.00 0.00 0.00 78 1000.8
20260507021112 62 188 4.0 10.0 0.00 0.00 0.00 77 1000.8
20260507020607 63 164 4.0 10.0 0.00 0.00 0.00 76 1000.8
20260507020107 63 186 4.0 10.0 0.00 0.00 0.00 76 1000.8
20260507015608 63 169 3.0 7.0 0.00 0.00 0.00 75 1000.8
20260507015106 64 192 4.0 8.0 0.00 0.00 0.00 76 1000.8
20260507014607 64 165 4.0 8.0 0.00 0.00 0.00 75 1000.8
20260507014107 64 188 4.0 8.0 0.00 0.00 0.00 75 1000.8
20260507013603 64 178 4.0 8.0 0.00 0.00 0.00 75 1000.8
20260507013104 64 200 5.0 9.0 0.00 0.00 0.00 75 1000.7
20260507012604 64 188 5.0 9.0 0.00 0.00 0.00 74 1000.9
20260507012103 65 209 4.0 8.0 0.00 0.00 0.00 74 1000.9
20260507011102 65 160 4.0 9.0 0.00 0.00 0.00 73 1000.7
20260507010601 65 215 4.0 9.0 0.00 0.00 0.00 72 1000.9
20260507010100 66 181 5.0 9.0 0.00 0.00 0.00 72 1000.9
20260507005559 66 182 5.0 9.0 0.00 0.00 0.00 70 1000.9
20260507005059 67 161 4.0 9.0 0.00 0.00 0.00 70 1000.8
20260507004600 67 189 3.0 7.0 0.00 0.00 0.00 70 1000.9
20260507004053 67 238 3.0 7.0 0.00 0.00 0.00 71 1000.9
20260507003548 67 223 3.0 7.0 0.00 0.00 0.00 71 1000.9
20260507003046 67 202 3.0 8.0 0.00 0.00 0.00 71 1001.0
20260507002536 67 159 4.0 8.0 0.00 0.00 0.00 70 1001.0
20260507002036 67 252 4.0 8.0 0.00 0.00 0.00 70 1001.1
20260507001524 67 157 4.0 7.0 0.00 0.00 0.00 70 1001.0
20260507001017 67 188 4.0 8.0 0.00 0.00 0.00 69 1001.0
20260507000512 67 184 4.0 8.0 0.00 0.00 0.00 68 1001.1
20260507000006 68 210 5.0 10.0 0.00 0.00 0.00 69 1001.0
20260506235500 68 196 4.0 10.0 0.00 0.00 0.00 68 1001.1
20260506234448 68 200 3.0 7.0 0.00 0.00 0.00 67 1001.1
20260506233942 68 200 3.0 8.0 0.00 0.00 0.00 66 1001.1
20260506233435 68 241 4.0 9.0 0.00 0.00 0.00 67 1001.1
20260506232929 68 142 4.0 9.0 0.00 0.00 0.00 66 1001.0
20260506231917 68 265 3.0 7.0 0.00 0.00 0.00 68 1001.1
20260506231412 68 182 3.0 6.0 0.00 0.00 0.00 67 1001.2
20260506230906 68 231 3.0 7.0 0.00 0.00 0.00 67 1001.2
20260506225854 68 269 4.0 9.0 0.00 0.00 0.00 66 1001.2
20260506225348 69 227 4.0 8.0 0.00 0.00 0.00 67 1001.3
20260506224842 69 213 3.0 8.0 0.00 0.00 0.00 67 1001.3
20260506224336 69 172 3.0 7.0 0.00 0.00 0.00 65 1001.5
20260506223829 69 267 4.0 9.0 0.00 0.00 0.00 66 1001.4
20260506223324 69 160 4.0 9.0 0.00 0.00 0.00 65 1001.5
20260506222312 70 185 3.0 9.0 0.00 0.00 0.00 67 1001.6
20260506221806 69 209 4.0 10.0 0.00 0.00 0.00 66 1001.7
20260506221259 69 193 4.0 10.0 0.00 0.00 0.00 67 1001.8
20260506220754 68 185 4.0 10.0 0.00 0.00 0.00 68 1001.9
20260506220247 68 215 4.0 8.0 0.00 0.00 0.00 68 1001.9
20260506215741 68 202 4.0 8.0 0.00 0.00 0.00 68 1002.0
20260506215236 68 196 4.0 8.0 0.00 0.00 0.00 68 1002.1
20260506214730 68 213 4.0 9.0 0.00 0.00 0.00 67 1002.0
20260506213718 68 267 4.0 9.0 0.00 0.00 0.00 67 1002.1
20260506213218 69 196 3.0 8.0 0.00 0.00 0.00 67 1002.3
20260506212720 68 214 3.0 8.0 0.00 0.00 0.00 67 1002.4
20260506212218 69 206 3.0 8.0 0.00 0.00 0.00 66 1002.3
20260506211718 68 235 4.0 8.0 0.00 0.00 0.00 68 1002.3
20260506211218 69 207 3.0 7.0 0.00 0.00 0.00 66 1002.3